Content
SEND FEEDBACK

Daily
Averages
Monthly
Summary
United States of America

CUMBERLAND, KENTUCKY


Home > North America > United States > Kentucky
Elevation: 146 feet     Latitude: 36 58N     Longitude: 082 59W

WEATHER
 
SELECT A DAY
Number of Records: 448,550;   Date Range: 1/1/95 - 8/12/14
 
SHARE

PRINT THIS DATA

[ ← Previous Day ]
WEATHER ALMANAC - FEBRUARY 13, 2013
[ Next Day → ]
[ °C ]   °F
Weather ElementAverageHighLow
Temperature36.8 °F42.8 °F (12:35 am)32 °F (5:15 pm)
Dewpoint34 °F41 °F (9:55 am)26.6 °F (12:35 am)
Humidity90.9 %100 % (7:15 am)53 % (12:35 am)
Barometer29.74 in29.90 in (11:35 pm)29.61 in (1:35 pm)
Wind Speed4.4 mph13.8 mph (4:55 pm)
Wind Gust21.9 mph (4:55 pm)
Weather ElementAverage
Visibility7.3 mi
Wind DirectionS (175.4 °)

Weather ElementTotal
Precipitation0.25 in
Heating Degree Days27.6 (Base 65)
Averaged from 70 records on February 13, 2013
WEATHER CONDITIONS BREAKOUT
WIND DIRECTION BREAKOUT
WEATHER BY HOUR - FEBRUARY 13, 2013
[ °C ]   °F
Local TimeTemperatureDewpointHumidityBarometerVisibilityWind DirectionWind SpeedGust SpeedPrecipitationEventsConditions
12:35 AM42.8 °F26.6 °F53 %29.86 in10.0 miCalmOvercast
12:55 AM42.8 °F28.4 °F57 %29.84 in10.0 miCalmOvercast
1:15 AM42.8 °F28.4 °F57 %29.84 in10.0 miSE (140°)3.5 mphOvercast
1:35 AM42.8 °F30.2 °F61 %29.83 in10.0 miCalmOvercast
1:55 AM42.8 °F30.2 °F61 %29.83 in10.0 miSSE (160°)4.6 mphOvercast
2:15 AM41.0 °F30.2 °F65 %29.83 in10.0 miSE (140°)3.5 mphOvercast
2:35 AM41.0 °F32.0 °F70 %29.81 in10.0 miSouth (170°)4.6 mphOvercast
2:55 AM41.0 °F32.0 °F70 %29.81 in10.0 miSSW (200°)4.6 mphOvercast
3:15 AM41.0 °F32.0 °F70 %29.79 in10.0 miCalmOvercast
3:35 AM41.0 °F32.0 °F70 %29.78 in10.0 miCalmOvercast
3:55 AM41.0 °F32.0 °F70 %29.77 in10.0 miCalmOvercast
4:15 AM41.0 °F32.0 °F70 %29.77 in10.0 miCalmOvercast
4:35 AM41.0 °F32.0 °F70 %29.75 in10.0 miNE (40°)3.5 mphOvercast
4:55 AM41.0 °F32.0 °F70 %29.74 in10.0 miCalmOvercast
5:15 AM41.0 °F32.0 °F70 %29.73 in10.0 miCalmOvercast
5:35 AM41.0 °F32.0 °F70 %29.73 in10.0 miCalmOvercast
5:55 AM41.0 °F32.0 °F70 %29.71 in10.0 miCalmRainLight Rain
6:15 AM41.0 °F33.8 °F76 %29.72 in10.0 miCalmRainLight Rain
6:35 AM39.2 °F35.6 °F87 %29.70 in7.0 miCalmRainLight Rain
6:55 AM37.4 °F35.6 °F93 %29.69 in10.0 miCalmRainLight Rain
7:15 AM37.4 °F37.4 °F100 %29.68 in10.0 miCalm0.01 inRainLight Rain
7:35 AM37.4 °F37.4 °F100 %29.67 in10.0 miCalm0.01 inRainLight Rain
7:55 AM39.2 °F35.6 °F87 %29.67 in7.0 miCalm0.01 inRainLight Rain
8:15 AM37.4 °F35.6 °F93 %29.67 in4.0 miCalm0.01 inRainRain
8:35 AM37.4 °F37.4 °F100 %29.66 in3.0 miCalm0.03 inRainLight Rain
8:55 AM37.4 °F37.4 °F100 %29.66 in5.0 miCalm0.03 inOvercast
9:15 AM37.4 °F37.4 °F100 %29.64 in7.0 miCalmOvercast
9:35 AM39.2 °F39.2 °F100 %29.63 in7.0 miSouth (170°)5.8 mphRainLight Rain
9:55 AM41.0 °F41.0 °F100 %29.64 in5.0 miSouth (180°)5.8 mph0.01 inRainLight Rain
10:15 AM41.0 °F41.0 °F100 %29.64 in4.0 miCalmOvercast
10:35 AM41.0 °F41.0 °F100 %29.65 in1.5 miWSW (250°)3.5 mphOvercast
10:55 AM41.0 °F41.0 °F100 %29.64 in1.8 miCalm0.01 inRainLight Rain
11:15 AM41.0 °F41.0 °F100 %29.64 in2.0 miNW (310°)4.6 mph0.01 inRainLight Rain
11:35 AM39.2 °F39.2 °F100 %29.65 in0.5 miNNW (330°)6.9 mph0.02 inRainLight Rain
11:55 AM37.4 °F37.4 °F100 %29.65 in1.8 miNNW (330°)4.6 mph0.02 inRainLight Rain
12:15 PM37.4 °F37.4 °F100 %29.64 in2.5 miNNW (330°)6.9 mph0.01 inRainLight Rain
12:35 PM37.4 °F37.4 °F100 %29.63 in3.0 miNNW (340°)5.8 mph0.01 inOvercast
12:55 PM35.6 °F35.6 °F100 %29.63 in2.5 miNorth (360°)5.8 mph0.02 inRainLight Rain
1:15 PM35.6 °F35.6 °F100 %29.62 in7.0 miCalmOvercast
1:35 PM37.4 °F37.4 °F100 %29.61 in10.0 miCalmOvercast
1:55 PM35.6 °F35.6 °F100 %29.62 in3.0 miNNW (330°)5.8 mph0.01 inRainLight Rain
2:15 PM35.6 °F35.6 °F100 %29.63 in2.5 miNNW (330°)8.1 mph0.01 inRainLight Rain
2:35 PM33.8 °F33.8 °F100 %29.64 in5.0 miNW (320°)9.2 mph0.01 inRainLight Rain
2:55 PM33.8 °F33.8 °F100 %29.66 in2.5 miWNW (300°)9.2 mph0.01 inRainLight Rain
3:15 PM33.8 °F33.8 °F100 %29.67 in7.0 miWNW (290°)8.1 mphOvercast
3:35 PM35.6 °F35.6 °F100 %29.69 in7.0 miWNW (290°)9.2 mphSnowLight Snow
3:55 PM35.6 °F35.6 °F100 %29.69 in10.0 miWNW (300°)8.1 mph19.6 mphOvercast
4:15 PM35.6 °F35.6 °F100 %29.70 in7.0 miWNW (300°)10.4 mph18.4 mphOvercast
4:55 PM33.8 °F33.8 °F100 %29.74 in10.0 miNW (310°)13.8 mph21.9 mphOvercast
5:15 PM32.0 °F32.0 °F100 %29.75 in7.0 miNW (320°)13.8 mph20.7 mphOvercast
5:35 PM32.0 °F32.0 °F100 %29.75 in5.0 miWNW (300°)9.2 mphOvercast
5:55 PM32.0 °F32.0 °F100 %29.76 in10.0 miNW (310°)8.1 mphOvercast
6:15 PM32.0 °F32.0 °F100 %29.77 in10.0 miNW (310°)8.1 mphOvercast
6:35 PM32.0 °F32.0 °F100 %29.79 in10.0 miWNW (290°)9.2 mphOvercast
6:55 PM32.0 °F32.0 °F100 %29.81 in10.0 miWNW (300°)11.5 mphOvercast
7:15 PM32.0 °F32.0 °F100 %29.82 in10.0 miWNW (300°)9.2 mphOvercast
7:35 PM32.0 °F32.0 °F100 %29.83 in10.0 miWNW (290°)6.9 mphOvercast
7:55 PM32.0 °F32.0 °F100 %29.84 in4.0 miWNW (290°)4.6 mphOvercast
8:15 PM32.0 °F32.0 °F100 %29.84 in4.0 miWNW (290°)5.8 mphOvercast
8:35 PM32.0 °F32.0 °F100 %29.84 in7.0 miWSW (250°)5.8 mphOvercast
8:55 PM32.0 °F32.0 °F100 %29.85 in10.0 miWNW (290°)9.2 mphOvercast
9:15 PM32.0 °F32.0 °F100 %29.85 in7.0 miWest (280°)6.9 mphOvercast
9:35 PM32.0 °F32.0 °F100 %29.86 in5.0 miWest (270°)6.9 mphOvercast
9:55 PM32.0 °F32.0 °F100 %29.87 in7.0 miWNW (290°)5.8 mphOvercast
10:15 PM32.0 °F32.0 °F100 %29.87 in7.0 miWNW (290°)5.8 mphOvercast
10:35 PM32.0 °F32.0 °F100 %29.88 in5.0 miWNW (290°)5.8 mphOvercast
10:55 PM32.0 °F32.0 °F100 %29.88 in7.0 miWSW (250°)5.8 mphOvercast
11:15 PM32.0 °F32.0 °F100 %29.89 in10.0 miWNW (290°)6.9 mphOvercast
11:35 PM32.0 °F32.0 °F100 %29.90 in7.0 miWest (280°)4.6 mphOvercast
11:55 PM32.0 °F32.0 °F100 %29.90 in10.0 miWest (280°)4.6 mphOvercast
Hourly data recorded from KLNP, located miles away from Cumberland, Kentucky







STORIES FROM OUR PARTNERS